Weather observations for the past three days for
Chesapeake, Chesapeake Municipal Airport
Imperial (Metric)
Date Time (edt) Wind (mph) Vis. (mi.) Weather Sky Cond. Temperature (ºF) Relative Humidity Wind Chill (°F) Heat Index (°F) Pressure Precipitation (in)
Air Dwpt 6 hour altimeter (in) sea level (mb) 1 hr 3 hr 6 hr
Max. Min.
20 00:15 Calm 10.00 Partly Cloudy SCT017 SCT022 SCT110 74.5 72.3 93% 30.11 0.0
19 23:55 Calm 10.00 Partly Cloudy SCT017 SCT030 74.8 72.5 92% 30.11 0.0
19 23:35 Calm 10.00 Mostly Cloudy BKN017 BKN028 BKN033 75.2 72.1 90% 74 30.11 0.0
19 23:15 Calm 10.00 Overcast BKN017 BKN025 OVC031 75.2 72.5 91% 74 30.11 0.0
19 22:55 NE 3 10.00 Mostly Cloudy BKN019 BKN025 BKN035 75.2 72.1 90% 74 30.11 0.0
19 22:35 Calm 10.00 Partly Cloudy SCT016 74.7 72.5 93% 30.11 0.0
19 22:15 E 5 10.00 Fair CLR 75.2 72.5 91% 74 30.11 0.0
19 21:55 NE 3 10.00 Fair CLR 76.1 72.3 88% 76 30.11 0.0
19 21:35 NE 3 10.00 Fair CLR 75.6 72.3 90% 75 30.11 0.0
19 21:15 NE 5 10.00 Partly Cloudy SCT120 76.1 72.3 88% 76 30.11 0.0
19 20:55 E 3 10.00 Partly Cloudy SCT120 75.9 72.5 89% 76 30.1 0.0
19 20:35 E 6 10.00 Fair CLR 76.1 72.1 88% 76 30.1 0.0
19 20:15 E 7 10.00 Partly Cloudy SCT014 SCT020 SCT120 76.3 72.1 87% 77 30.1 0.0
19 19:55 E 5 10.00 Partly Cloudy SCT014 76.8 72.1 85.1 76.8 86% 78 30.09 0.0
19 19:35 E 7 10.00 Fair CLR 77.2 72 84% 79 30.09 0.0
19 19:15 E 5 10.00 Partly Cloudy SCT019 77.5 71.6 82% 79 30.08 0.0
19 18:55 E 7 10.00 Partly Cloudy SCT019 78.1 71.2 80% 80 30.09 0.0
19 18:35 E 8 10.00 Fair CLR 78.6 70.9 77% 81 30.08 0.0
19 18:15 E 7 10.00 Fair CLR 79.3 71.2 76% 83 30.08 0.0
19 17:55 E 7 10.00 Fair CLR 79.3 70.9 75% 82 30.08 0.0
19 17:35 E 7 10.00 Fair CLR 79.9 70.3 73% 83 30.07 0.0
19 17:15 E 8 10.00 Fair CLR 81 69.4 68% 84 30.07 0.0
19 16:55 E 8 10.00 Partly Cloudy SCT029 82.2 70.5 68% 86 30.07 0.0
19 16:35 E 7 10.00 Fair CLR 81.9 69.4 66% 85 30.07 0.0
19 16:15 E 10 10.00 Partly Cloudy SCT029 SCT050 SCT060 83.8 69.6 62% 88 30.07 0.0
19 15:55 E 14 G 17 10.00 Partly Cloudy SCT029 SCT037 83.8 70 63% 88 30.07 0.0
19 15:35 E 10 10.00 Mostly Cloudy SCT029 BKN039 BKN049 83.7 69.4 62% 88 30.08 0.0
19 15:15 E 13 10.00 Partly Cloudy SCT029 SCT037 SCT049 84.6 69.8 61% 89 30.08 0.0
19 14:55 E 7 10.00 Partly Cloudy SCT029 SCT034 SCT042 83.8 70 63% 88 30.09 0.0
19 14:35 E 8 10.00 Partly Cloudy SCT048 SCT055 84 69.3 61% 88 30.09 0.0
19 14:15 E 9 10.00 Mostly Cloudy SCT029 SCT037 BKN048 83.5 70.2 64% 88 30.09 0.0
19 13:55 E 9 10.00 Partly Cloudy SCT029 SCT035 83.7 69.4 84.2 74.3 62% 88 30.09 0.0
19 13:35 NE 10 10.00 Partly Cloudy SCT030 83.3 70.2 65% 88 30.09 0.0
19 13:15 E 9 10.00 Partly Cloudy SCT026 82.9 70.7 67% 87 30.09 0.0
19 12:55 E 10 10.00 Mostly Cloudy SCT028 BKN036 83.1 70.5 66% 88 30.1 0.0
19 12:35 E 9 10.00 Partly Cloudy SCT028 SCT036 83.1 70.2 65% 87 30.1 0.0
19 12:15 NE 8 10.00 Partly Cloudy SCT028 83.1 68.7 62% 87 30.09 0.0
19 11:55 NE 10 10.00 Partly Cloudy SCT028 SCT080 82.8 69.6 65% 87 30.09 0.0
19 11:15 NE 13 10.00 Partly Cloudy SCT026 SCT080 SCT110 82.8 68.2 62% 86 30.09 0.0
19 10:55 NE 10 10.00 Partly Cloudy SCT022 SCT110 81.3 69.1 66% 85 30.08 0.0
19 10:35 NE 10 10.00 Partly Cloudy SCT020 80.8 70.2 70% 84 30.08 0.0
19 10:15 NE 10 10.00 Partly Cloudy SCT018 79.7 70 72% 83 30.08 0.0
19 09:55 NE 9 10.00 Partly Cloudy SCT013 SCT019 78.8 70.9 77% 82 30.07 0.0
19 09:35 NE 8 10.00 Mostly Cloudy BKN013 BKN019 BKN075 77.7 71.2 81% 80 30.08 0.0
19 09:15 NE 5 10.00 Mostly Cloudy BKN011 BKN075 BKN090 77.2 71.2 82% 79 30.08 0.0
19 08:55 NE 8 10.00 Mostly Cloudy SCT011 BKN090 77.5 72 83% 79 30.08 0.0
19 08:35 NE 7 10.00 Overcast SCT011 BKN070 OVC090 76.1 72.1 88% 76 30.07 0.0
19 08:15 NE 5 10.00 Mostly Cloudy BKN080 74.7 72.7 94% 30.06 0.0
19 07:55 NE 3 5.00 Fog/Mist SCT002 SCT070 BKN080 74.3 73.4 74.3 72.5 97% 30.05 0.0 0.03
19 07:35 Calm 1.25 Fog/Mist OVC002 73.9 72.9 96% 30.04 0.0
19 07:15 Calm 0.50 Fog OVC002 73.4 72.5 97% 30.04 0.0
19 06:55 Calm 0.50 Fog OVC002 73.4 72.1 96% 30.03 0.0
19 06:35 Calm 0.75 Fog/Mist OVC002 72.9 71.8 96% 30.02 0.0
19 06:15 Calm 1.75 Fog/Mist OVC002 72.9 71.8 96% 30.01 0.0
19 05:55 Calm 1.50 Fog/Mist OVC002 72.9 71.8 96% 30 0.0
19 05:35 Calm 4.00 Fog/Mist OVC002 72.9 71.6 96% 30 0.0
19 05:15 Calm 10.00 Overcast OVC006 72.9 71.6 96% 29.99 0.0
19 04:55 Calm 10.00 Overcast OVC008 72.7 71.6 96% 29.99 0.0 0.01 0.03
19 04:35 Calm 10.00 Mostly Cloudy SCT004 SCT008 BKN070 72.5 71.1 95% 29.99 0.0 0.01
19 04:15 Calm 10.00 Light Rain SCT080 SCT100 SCT120 72.9 71.6 96% 29.98 0.0 0.01
19 03:55 NW 5 10.00 Light Rain CLR 72.9 71.6 96% 29.98 0.0 0.01
19 03:35 Calm 10.00 Light Rain SCT049 SCT070 SCT085 72.7 71.2 95% 29.98 0.0 0.01
19 03:15 Calm 10.00 Overcast SCT049 BKN070 OVC120 72.9 71.2 95% 29.98 0.0
19 02:55 W 7 7.00 Light Rain SCT010 SCT070 BKN090 73 71.2 94% 29.98 0.0 0.01
19 02:35 W 3 10.00 Rain SCT004 OVC015 72.9 71.2 95% 29.98 0.0
19 02:15 Calm 10.00 Overcast OVC015 72.9 70.9 94% 29.98 0.0
19 01:55 Calm 10.00 Overcast OVC015 72.9 70.9 72.9 72 94% 29.99 0.0
19 01:35 W 3 10.00 Overcast BKN015 BKN021 OVC033 72.9 71.1 94% 29.99 0.0
19 01:15 Calm 10.00 Overcast BKN015 OVC033 72.9 71.1 94% 30 0.0
19 00:55 Calm 10.00 Overcast OVC033 72.9 71.2 95% 30 0.0
19 00:35 W 5 10.00 Overcast SCT012 OVC033 72.7 71.2 95% 30 0.0
19 00:15 Calm 10.00 Mostly Cloudy SCT012 BKN033 BKN120 72.5 70.9 95% 30 0.0
18 23:55 SW 3 10.00 Fair CLR 72.1 70.7 95% 29.99 0.0
18 23:35 SW 3 10.00 Partly Cloudy SCT009 SCT043 SCT060 72.1 70.7 95% 29.99 0.0
18 23:15 Calm 10.00 Partly Cloudy SCT009 72.1 70.7 95% 29.99 0.0
18 22:55 Calm 10.00 Overcast OVC009 72 70.5 95% 29.98 0.0
18 22:35 Calm 10.00 Overcast BKN009 BKN028 OVC065 72.1 70.7 95% 29.98 0.0
18 22:15 S 5 10.00 Overcast SCT028 SCT040 OVC046 72.1 70.7 95% 29.98 0.0
18 21:55 Calm 10.00 Overcast SCT033 BKN039 OVC048 72.1 70.7 95% 29.98 0.0
18 21:35 Calm 10.00 Overcast SCT034 OVC048 72.1 70.7 95% 29.98 0.0
18 21:15 Calm 10.00 Partly Cloudy SCT050 72 70.7 96% 29.97 0.0
18 20:55 Calm 10.00 Fair CLR 72.1 70.7 95% 29.96 0.0
18 20:35 Calm 10.00 Fair CLR 72.5 70.9 95% 29.95 0.0
18 20:15 W 3 10.00 Fair CLR 72.5 70.7 94% 29.94 0.0
18 19:55 SW 3 10.00 Fair CLR 72.5 70.7 83.1 72.1 94% 29.93 0.0 0.01 0.69
18 19:35 S 5 10.00 Partly Cloudy SCT004 SCT012 SCT025 72.1 70.7 95% 29.92 0.0 0.01
18 19:15 S 6 10.00 Thunderstorm in Vicinity SCT004 SCT012 BKN026 73.2 71.6 95% 29.92 0.0
18 18:55 S 3 7.00 Light Rain SCT006 SCT013 BKN065 73.8 72.5 96% 29.91 0.0 0.02
18 18:35 S 6 10.00 Thunderstorm Light Rain in Vicinity SCT008 SCT036 BKN085 74.3 72.7 95% 29.91 0.0 0.01
18 18:15 S 3 10.00 Thunderstorm SCT006 SCT085 74.3 72.7 95% 29.91 0.0
18 17:55 Calm 10.00 Thunderstorm Light Rain SCT005 SCT032 SCT049 74.5 72.7 94% 29.89 0.0 0.66
18 17:35 N 10 G 23 0.75 Thunderstorm Heavy Rain BKN005 OVC018 73.6 71.8 94% 29.9 0.0 0.66
18 17:15 W 5 10.00 Thunderstorm Light Rain BKN017 OVC041 78.8 71.8 79% 82 29.91 0.0
18 16:55 N 3 10.00 Thunderstorm in Vicinity SCT015 BKN041 OVC060 82.2 74.7 78% 89 29.89 0.0
18 16:35 NW 5 10.00 Thunderstorm in Vicinity OVC060 83.1 74.5 75% 90 29.89 0.0
18 16:15 Calm 10.00 Thunderstorm in Vicinity SCT017 SCT037 OVC060 82.2 75 79% 89 29.89 0.0
18 15:55 NW 3 10.00 Overcast SCT015 SCT037 OVC048 82 74.5 78% 88 29.9 0.0
18 15:35 W 5 10.00 Overcast SCT015 BKN036 OVC046 82.4 75 78% 89 29.9 0.0
18 15:15 Calm 7.00 Overcast BKN017 OVC034 81 74.8 82% 87 29.91 0.0
18 14:55 W 3 10.00 Thunderstorm in Vicinity BKN019 OVC034 81.5 74.8 80% 88 29.93 0.0
18 14:35 SW 3 10.00 Overcast SCT017 BKN030 OVC034 81.3 75 81% 87 29.94 0.0
18 14:15 Calm 10.00 Overcast SCT025 OVC030 81.7 75 80% 88 29.94 0.0
18 13:55 Calm 10.00 Overcast OVC024 81.5 74.5 82.8 73.4 79% 87 29.93 0.0
18 13:35 SW 3 10.00 Mostly Cloudy BKN024 BKN090 81.5 74.1 78% 87 29.93 0.0
18 13:15 SW 3 10.00 Mostly Cloudy BKN022 BKN100 81.5 74.1 78% 87 29.93 0.0
18 12:55 SW 3 10.00 Mostly Cloudy BKN020 BKN026 82.2 74.1 77% 88 29.94 0.0
18 12:35 S 3 10.00 Mostly Cloudy BKN017 BKN023 81.9 74.1 77% 88 29.94 0.0
18 12:15 SW 3 10.00 Mostly Cloudy BKN017 BKN024 81.7 74.3 78% 88 29.94 0.0
18 11:55 SW 5 10.00 Overcast OVC017 80.8 73.6 79% 86 29.95 0.0
18 11:35 SW 6 10.00 Overcast OVC015 81.3 74.7 80% 87 29.94 0.0
18 11:15 SW 5 10.00 Overcast OVC013 79.5 73.6 82% 83 29.95 0.0
18 10:55 SW 5 10.00 Overcast OVC013 79.2 73.9 84% 83 29.95 0.0
18 10:35 SW 6 10.00 Overcast OVC011 77.9 72.9 85% 80 29.95 0.0
18 10:15 S 5 10.00 Mostly Cloudy SCT011 SCT014 BKN120 78.1 73.4 86% 81 29.95 0.0
18 09:55 SW 5 10.00 Overcast SCT011 SCT050 OVC110 76.5 72.5 88% 77 29.95 0.0
18 09:35 SW 6 10.00 Overcast SCT009 SCT050 OVC110 76.1 72.3 88% 76 29.96 0.0
18 09:15 S 6 10.00 Mostly Cloudy SCT007 BKN110 75.7 72.5 90% 76 29.95 0.0
18 08:55 S 5 10.00 Mostly Cloudy SCT007 BKN110 75.6 72.5 90% 75 29.96 0.0
18 08:35 S 3 10.00 Partly Cloudy SCT110 74.3 71.8 92% 29.95 0.0
18 08:15 S 5 10.00 Mostly Cloudy BKN110 73.8 71.6 93% 29.95 0.0
18 07:55 S 5 10.00 Mostly Cloudy BKN110 73.4 71.2 74.3 72.5 93% 29.94 0.0 0.07
18 07:35 SW 6 10.00 Fair CLR 73.2 71.2 94% 29.94 0.0
18 07:15 S 5 10.00 Partly Cloudy SCT004 SCT120 72.7 71.1 95% 29.93 0.0
18 06:55 S 3 10.00 Mostly Cloudy BKN004 BKN070 BKN120 72.5 70.9 95% 29.93 0.0
18 06:35 SW 5 10.00 Overcast BKN004 OVC080 72.5 70.9 95% 29.93 0.0
18 06:15 S 6 10.00 Mostly Cloudy BKN004 BKN029 BKN080 72.5 71.1 95% 29.93 0.0
18 05:55 S 5 10.00 Partly Cloudy SCT004 SCT029 72.5 71.1 95% 29.93 0.0
18 05:35 S 3 10.00 Partly Cloudy SCT004 72.5 70.9 95% 29.91 0.0
18 05:15 S 5 10.00 Mostly Cloudy BKN004 72.5 70.9 95% 29.91 0.0
18 04:55 SW 6 10.00 Overcast OVC004 72.5 71.1 95% 29.91 0.0 0.07
18 04:35 S 5 10.00 Overcast OVC004 72.7 71.1 95% 29.9 0.0
18 04:15 SW 3 10.00 Overcast OVC004 72.7 71.2 95% 29.89 0.0
18 03:55 S 5 10.00 Mostly Cloudy BKN004 72.7 71.1 95% 29.87 0.0
18 03:35 S 5 10.00 Partly Cloudy SCT004 SCT070 72.7 71.1 95% 29.88 0.0
18 03:15 SE 7 10.00 Light Rain SCT110 72.5 70.9 95% 29.89 0.0
18 02:55 SE 7 10.00 Light Rain CLR 72.9 70.9 94% 29.89 0.0 0.07
18 02:35 Calm 7.00 Thunderstorm Rain in Vicinity CLR 73.2 70.7 92% 29.9 0.0 0.06
18 02:15 Calm 7.00 Thunderstorm Rain in Vicinity CLR 73.4 70.7 91% 29.92 0.0 0.02
18 01:55 W 8 10.00 Light Rain CLR 74.3 70.9 79.9 74.3 89% 29.92 0.0
18 01:35 SW 6 10.00 Thunderstorm in Vicinity SCT100 SCT120 74.5 71.8 91% 29.92 0.0
18 01:15 W 5 10.00 Thunderstorm in Vicinity CLR 74.5 72.3 93% 29.91 0.0
18 00:55 SW 6 10.00 Light Rain CLR 74.8 72.3 92% 29.9 0.0
18 00:35 SW 7 10.00 Thunderstorm Light Rain SCT017 SCT060 SCT085 74.8 72.1 91% 29.91 0.0
18 00:15 SW 8 G 17 10.00 Thunderstorm Light Rain SCT010 SCT015 BKN120 76.3 72.1 87% 77 29.91 0.0
17 23:55 SW 8 10.00 Thunderstorm BKN012 BKN026 BKN033 77.9 74.3 89% 80 29.92 0.0
17 23:35 SW 9 10.00 Overcast OVC012 78.8 74.5 87% 82 29.92 0.0
17 23:15 SW 8 10.00 Thunderstorm BKN015 BKN023 78.3 74.3 88% 81 29.92 0.0
17 22:55 S 8 10.00 Thunderstorm in Vicinity SCT023 SCT028 SCT037 78.8 74.5 87% 82 29.92 0.0
17 22:35 S 12 10.00 Partly Cloudy SCT025 SCT034 78.4 74.3 87% 81 29.92 0.0
17 22:15 S 10 G 16 10.00 Partly Cloudy SCT025 SCT031 SCT039 78.8 74.5 87% 82 29.92 0.0
17 21:55 SW 10 10.00 Fair CLR 78.8 74.5 87% 82 29.92 0.0
17 21:35 S 8 10.00 Fair CLR 78.4 74.5 88% 81 29.91 0.0
17 21:15 S 8 10.00 Fair CLR 78.4 74.3 87% 81 29.91 0.0
17 20:55 SW 6 10.00 Fair CLR 78.8 74.3 86% 82 29.9 0.0
17 20:35 S 8 10.00 Fair CLR 79.2 74.1 85% 83 29.88 0.0
17 20:15 S 10 10.00 Fair CLR 79.5 73.6 82% 83 29.88 0.0
17 19:55 S 6 10.00 Fair CLR 79.9 73.4 91.2 79.9 81% 84 29.88 0.0
17 19:35 S 8 G 17 10.00 Fair CLR 81 73.2 77% 86 29.88 0.0
17 19:15 S 10 G 18 10.00 Fair CLR 82 73 74% 87 29.87 0.0
17 18:55 S 12 10.00 Fair CLR 81.9 71.8 72% 87 29.87 0.0
17 18:35 S 16 10.00 Partly Cloudy SCT017 82.6 73.2 73% 88 29.87 0.0
17 18:15 S 13 10.00 Partly Cloudy SCT017 81.9 75.2 80% 89 29.87 0.0
17 17:55 S 10 10.00 Partly Cloudy SCT021 81.5 75.2 81% 88 29.87 0.0
17 17:35 S 6 10.00 Fair CLR 81.9 74.8 79% 88 29.88 0.0
17 17:15 SW 13 G 20 10.00 Partly Cloudy SCT048 SCT050 SCT110 82.4 74.3 77% 89 29.9 0.0
17 16:55 S 13 G 18 10.00 Thunderstorm Light Rain in Vicinity SCT048 BKN050 BKN065 82.8 74.5 76% 90 29.89 0.0
17 16:35 S 16 G 21 10.00 Thunderstorm in Vicinity SCT035 SCT043 SCT049 84 73.9 72% 91 29.89 0.0
17 16:15 S 22 G 28 10.00 Thunderstorm in Vicinity and Breezy SCT035 BKN046 BKN060 87.3 75.2 67% 97 29.89 0.0
17 15:55 S 10 G 20 10.00 Mostly Cloudy SCT033 SCT041 BKN048 87.8 77.2 71% 100 29.88 0.0
17 15:35 S 13 G 17 10.00 Partly Cloudy SCT037 SCT065 SCT070 91.2 77.2 64% 105 29.88 0.0
17 15:15 S 8 10.00 Partly Cloudy SCT035 SCT040 SCT049 90.5 76.5 63% 103 29.9 0.0
17 14:55 S 10 10.00 Mostly Cloudy SCT036 BKN043 BKN050 89.1 77 68% 102 29.91 0.0
17 14:35 S 13 G 18 10.00 Mostly Cloudy BKN035 BKN042 89.4 75.6 64% 100 29.91 0.0
17 14:15 S 12 10.00 Partly Cloudy SCT033 SCT046 89.8 76.5 65% 102 29.91 0.0
17 13:55 S 12 G 17 10.00 Fair CLR 90.1 75.6 90.3 79.5 62% 101 29.92 0.0
17 13:35 S 12 G 20 3.00 Partly Cloudy with Haze SCT032 89.8 75.7 63% 101 29.92 0.0
17 13:15 S 9 10.00 Partly Cloudy SCT032 89.1 75.7 65% 100 29.93 0.0
17 12:55 SW 7 G 16 10.00 Partly Cloudy SCT030 88.5 75.4 65% 99 29.93 0.0
17 12:35 SW 8 10.00 Partly Cloudy SCT030 88.7 75.4 65% 99 29.94 0.0
17 12:15 SW 7 10.00 Fair CLR 88 74.8 65% 98 29.94 0.0
17 11:55 SW 8 10.00 Fair CLR 87.3 74.8 67% 97 29.95 0.0
17 11:35 SW 8 10.00 Fair CLR 85.3 73.9 69% 93 29.95 0.0
17 11:15 SW 8 10.00 Fair CLR 85.8 74.5 69% 94 29.95 0.0
17 10:55 SW 8 10.00 Fair CLR 85.3 74.1 69% 93 29.95 0.0
17 10:35 SW 9 G 21 10.00 Fair CLR 84.6 73.4 69% 91 29.95 0.0
17 10:15 SW 12 10.00 Fair CLR 83.8 73.4 71% 90 29.95 0.0
17 09:55 SW 7 10.00 Fair CLR 84.2 73.4 70% 91 29.96 0.0
17 09:35 SW 7 G 16 10.00 Partly Cloudy SCT023 84.4 74.3 72% 92 29.96 0.0
17 09:15 SW 8 10.00 Fair CLR 83.7 74.1 73% 91 29.96 0.0
17 08:55 SW 9 10.00 Fair CLR 82.8 73.8 74% 89 29.96 0.0
17 08:35 SW 9 G 16 10.00 Fair CLR 81.5 73.8 77% 87 29.95 0.0
17 08:15 SW 9 10.00 Fair CLR 80.6 73.8 80% 85 29.95 0.0
17 07:55 SW 9 10.00 Fair CLR 79.3 73.8 79.9 76.1 83% 83 29.95 0.0
17 07:35 S 9 10.00 Fair CLR 77.9 73.6 87% 80 29.94 0.0
17 07:15 S 8 10.00 Fair CLR 77.2 73.4 88% 79 29.94 0.0
17 06:55 S 9 10.00 Fair CLR 77 72.9 87% 78 29.94 0.0
17 06:35 S 8 10.00 Fair CLR 76.3 72.5 88% 77 29.92 0.0
17 06:15 S 6 10.00 Fair CLR 76.1 72.5 89% 76 29.92 0.0
17 05:55 S 5 10.00 Fair CLR 76.6 72.5 87% 78 29.91 0.0
17 05:35 S 6 10.00 Fair CLR 77 72.5 86% 78 29.91 0.0
17 05:15 SW 6 10.00 Fair CLR 77.4 72.5 85% 79 29.9 0.0
17 04:55 S 8 10.00 Fair CLR 77.2 73 87% 79 29.9 0.0
17 04:35 S 8 10.00 Fair CLR 77.9 73.6 87% 80 29.89 0.0
17 04:15 S 7 10.00 Fair CLR 77.9 74.1 88% 80 29.9 0.0
17 03:55 S 6 10.00 Fair CLR 77.9 74.3 89% 80 29.9 0.0
17 03:35 S 6 10.00 Fair CLR 78.3 74.3 88% 81 29.9 0.0
17 03:15 SW 6 10.00 Fair CLR 78.8 74.3 86% 82 29.9 0.0
17 02:55 S 7 10.00 Fair CLR 78.8 74.7 87% 82 29.9 0.0
17 02:35 S 6 10.00 Fair CLR 79.2 75.2 88% 83 29.9 0.0
17 02:15 S 7 10.00 Fair CLR 79.7 75.6 87% 84 29.91 0.0
17 01:55 S 6 10.00 Fair CLR 79.9 76.1 86.5 79.9 88% 85 29.91 0.0
17 01:35 S 6 10.00 Fair CLR 80.2 76.3 88% 86 29.92 0.0
17 01:15 S 5 10.00 Fair CLR 80.6 76.5 87% 87 29.92 0.0
17 00:55 S 7 10.00 Fair CLR 81.1 76.6 86% 88 29.91 0.0
17 00:35 S 5 10.00 Fair CLR 81.5 77 86% 89 29.91 0.0
Date Time (edt) Wind (mph) Vis. (mi.) Weather Sky Cond. Air Dwpt Max. Min. Relative Humidity Wind Chill (°F) Heat Index (°F) altimeter (in) sea level (mb) 1 hr 3 hr 6 hr
6 hour
Temperature (ºF) Pressure Precipitation (in)